APG211 RPVD-RPVP

Flight info

Callsign APG211
Flight time 0h 48m
Altitude 32000
Route NANAS5R NANAS DCT PALAY DCT ZENNY ZENNY2W
Aircraft A320/M-SDE3FGHIRWY/LB1

Departure

Time 2026-05-06 10:39
Airport Sibulan Airport (RPVD)

Arrival

Time 2026-05-06 11:27
Airport Puerto Princesa International Airport / PAF Antonio Bautista Air Base (RPVP)
Time Latitude Longitude Altitude Speed Heading
2026-05-06 10:25 9.33327 123.29607 45 ft 0 kts 278°
2026-05-06 10:35 9.33327 123.29606 45 ft 1 kts 278°
2026-05-06 10:35 9.33329 123.29594 22 ft 2 kts 280°
2026-05-06 10:36 9.33334 123.29577 30 ft 2 kts 288°
2026-05-06 10:36 9.33338 123.29568 22 ft 1 kts 295°
2026-05-06 10:36 9.33359 123.29543 24 ft 7 kts 317°
2026-05-06 10:36 9.33411 123.29500 26 ft 11 kts 320°
2026-05-06 10:37 9.33450 123.29457 29 ft 13 kts 294°
2026-05-06 10:37 9.33453 123.29388 28 ft 5 kts 307°
2026-05-06 10:37 9.33461 123.29392 28 ft 0 kts 49°
2026-05-06 10:37 9.33461 123.29398 28 ft 2 kts 82°
2026-05-06 10:38 9.33461 123.29420 29 ft 6 kts 95°
2026-05-06 10:38 9.33460 123.29424 29 ft 0 kts 97°
2026-05-06 10:38 9.33454 123.29538 24 ft 53 kts 93°
2026-05-06 10:38 9.33416 123.30200 5 ft 133 kts 93°
2026-05-06 10:39 9.33362 123.31296 360 ft 164 kts 90°
2026-05-06 10:39 9.33376 123.32476 1123 ft 171 kts 85°
2026-05-06 10:39 9.33734 123.33605 1911 ft 172 kts 50°
2026-05-06 10:39 9.34756 123.34300 2598 ft 187 kts 15°
2026-05-06 10:40 9.36076 123.34209 3282 ft 202 kts 336°
2026-05-06 10:40 9.37195 123.33297 4045 ft 212 kts 317°
2026-05-06 10:40 9.38249 123.32249 4528 ft 219 kts 317°
2026-05-06 10:40 9.39386 123.31120 4810 ft 238 kts 317°
2026-05-06 10:41 9.40610 123.29910 5201 ft 255 kts 318°
2026-05-06 10:41 9.41923 123.28619 5682 ft 268 kts 317°
2026-05-06 10:41 9.43270 123.27294 6363 ft 272 kts 317°
2026-05-06 10:41 9.44639 123.25950 7044 ft 276 kts 317°
2026-05-06 10:42 9.46043 123.24573 7733 ft 279 kts 317°
2026-05-06 10:42 9.47442 123.23192 8415 ft 283 kts 315°
2026-05-06 10:42 9.48669 123.21601 8961 ft 294 kts 307°
2026-05-06 10:42 9.49873 123.19879 9502 ft 302 kts 307°
2026-05-06 10:43 9.51091 123.18131 10100 ft 307 kts 306°
2026-05-06 10:43 9.52350 123.16321 10423 ft 323 kts 306°
2026-05-06 10:43 9.53680 123.14410 10685 ft 339 kts 306°
2026-05-06 10:44 9.56488 123.10377 11538 ft 357 kts 306°
2026-05-06 10:44 9.57920 123.08318 12131 ft 360 kts 306°
2026-05-06 10:44 9.59368 123.06233 12737 ft 362 kts 306°
2026-05-06 10:44 9.60821 123.04141 13337 ft 364 kts 307°
2026-05-06 10:45 9.62378 123.02354 13856 ft 365 kts 319°
2026-05-06 10:45 9.64438 123.00859 14338 ft 366 kts 333°
2026-05-06 10:45 9.66801 122.99881 14815 ft 368 kts 346°
2026-05-06 10:45 9.69329 122.99464 15287 ft 369 kts 356°
2026-05-06 10:46 9.71897 122.99220 15755 ft 373 kts 355°
2026-05-06 10:46 9.74462 122.98804 16229 ft 377 kts 345°
2026-05-06 10:46 9.76872 122.97747 16696 ft 381 kts 329°
2026-05-06 10:46 9.78949 122.96064 17152 ft 386 kts 314°
2026-05-06 10:47 9.80543 122.93855 17591 ft 390 kts 298°
2026-05-06 10:47 9.81577 122.91301 18025 ft 394 kts 289°
2026-05-06 10:47 9.82486 122.88672 18409 ft 398 kts 290°
2026-05-06 10:47 9.83408 122.86007 18796 ft 401 kts 290°
2026-05-06 10:48 9.84336 122.83338 19183 ft 403 kts 290°
2026-05-06 10:48 9.85287 122.80605 19594 ft 406 kts 290°
2026-05-06 10:48 9.86217 122.77931 19980 ft 409 kts 290°
2026-05-06 10:48 9.87176 122.75174 20386 ft 411 kts 290°
2026-05-06 10:49 9.88130 122.72432 20780 ft 414 kts 290°
2026-05-06 10:49 9.89091 122.69666 21169 ft 416 kts 290°
2026-05-06 10:49 9.90054 122.66892 21559 ft 419 kts 290°
2026-05-06 10:49 9.91018 122.64102 21948 ft 422 kts 289°
2026-05-06 10:50 9.91990 122.61283 22323 ft 424 kts 290°
2026-05-06 10:50 9.92967 122.58453 22691 ft 427 kts 290°
2026-05-06 10:50 9.93956 122.55598 23053 ft 430 kts 289°
2026-05-06 10:50 9.94951 122.52725 23406 ft 432 kts 289°
2026-05-06 10:51 9.95947 122.49854 23695 ft 435 kts 289°
2026-05-06 10:51 9.96954 122.46945 23992 ft 436 kts 289°
2026-05-06 10:51 9.97960 122.44045 24301 ft 438 kts 289°
2026-05-06 10:51 9.98889 122.41104 24606 ft 439 kts 283°
2026-05-06 10:52 9.99362 122.38045 24908 ft 439 kts 273°
2026-05-06 10:52 9.99372 122.34937 25192 ft 441 kts 268°
2026-05-06 10:52 9.99309 122.31822 25472 ft 442 kts 268°
2026-05-06 10:52 9.99250 122.28712 25751 ft 444 kts 269°
2026-05-06 10:53 9.99197 122.25581 26029 ft 445 kts 269°
2026-05-06 10:53 9.99146 122.22425 26296 ft 446 kts 269°
2026-05-06 10:53 9.99098 122.19284 26566 ft 447 kts 269°
2026-05-06 10:53 9.99049 122.16122 26832 ft 449 kts 269°
2026-05-06 10:54 9.98999 122.12956 27080 ft 450 kts 269°
2026-05-06 10:54 9.98949 122.09771 27329 ft 451 kts 269°
2026-05-06 10:54 9.98896 122.06589 27567 ft 453 kts 269°
2026-05-06 10:54 9.98839 122.03402 27808 ft 454 kts 268°
2026-05-06 10:55 9.98780 122.00191 28046 ft 455 kts 268°
2026-05-06 10:55 9.98717 121.96973 28282 ft 457 kts 268°
2026-05-06 10:55 9.98657 121.93751 28509 ft 458 kts 268°
2026-05-06 10:55 9.98599 121.90512 28734 ft 459 kts 268°
2026-05-06 10:56 9.98540 121.87229 28963 ft 460 kts 268°
2026-05-06 10:56 9.98480 121.83974 29190 ft 461 kts 268°
2026-05-06 10:56 9.98419 121.80718 29409 ft 462 kts 268°
2026-05-06 10:56 9.98359 121.77459 29632 ft 463 kts 268°
2026-05-06 10:57 9.98303 121.74223 29827 ft 465 kts 269°
2026-05-06 10:57 9.98246 121.70903 30014 ft 466 kts 269°
2026-05-06 10:57 9.98189 121.67613 30180 ft 467 kts 268°
2026-05-06 10:57 9.98129 121.64323 30344 ft 468 kts 268°
2026-05-06 10:58 9.98067 121.61046 30494 ft 468 kts 268°
2026-05-06 10:58 9.98005 121.57740 30649 ft 469 kts 268°
2026-05-06 10:58 9.97941 121.54425 30800 ft 470 kts 268°
2026-05-06 10:58 9.97881 121.51106 31003 ft 470 kts 268°
2026-05-06 10:59 9.97820 121.47808 31236 ft 468 kts 268°
2026-05-06 10:59 9.97757 121.44506 31460 ft 467 kts 268°
2026-05-06 10:59 9.97696 121.41220 31679 ft 467 kts 268°
2026-05-06 10:59 9.97633 121.37921 31829 ft 466 kts 268°
2026-05-06 11:00 9.97565 121.34691 31864 ft 450 kts 268°
2026-05-06 11:00 9.97430 121.28398 31862 ft 446 kts 268°
2026-05-06 11:01 9.97312 121.22095 31861 ft 446 kts 269°
2026-05-06 11:01 9.97196 121.15809 31864 ft 446 kts 268°
2026-05-06 11:02 9.97063 121.09473 31863 ft 446 kts 268°
2026-05-06 11:02 9.96925 121.03217 31861 ft 448 kts 268°
2026-05-06 11:03 9.96791 120.96924 31861 ft 446 kts 268°
2026-05-06 11:03 9.96671 120.90633 31863 ft 446 kts 268°
2026-05-06 11:04 9.96544 120.84304 31863 ft 446 kts 268°
2026-05-06 11:04 9.96411 120.78029 31863 ft 445 kts 268°
2026-05-06 11:05 9.96282 120.71753 31870 ft 445 kts 268°
2026-05-06 11:05 9.96144 120.65501 31634 ft 435 kts 268°
2026-05-06 11:05 9.96080 120.62476 31405 ft 425 kts 268°
2026-05-06 11:06 9.96014 120.59485 31166 ft 423 kts 268°
2026-05-06 11:06 9.95949 120.56499 30936 ft 422 kts 268°
2026-05-06 11:06 9.95884 120.53532 30708 ft 421 kts 268°
2026-05-06 11:06 9.95821 120.50566 30481 ft 420 kts 268°
2026-05-06 11:07 9.95757 120.47610 30254 ft 419 kts 268°
2026-05-06 11:07 9.95690 120.44670 29958 ft 414 kts 268°
2026-05-06 11:07 9.95622 120.41757 29428 ft 412 kts 268°
2026-05-06 11:07 9.95557 120.38865 28970 ft 407 kts 268°
2026-05-06 11:08 9.95492 120.36008 28513 ft 404 kts 268°
2026-05-06 11:08 9.95431 120.33169 28058 ft 400 kts 268°
2026-05-06 11:08 9.95389 120.31270 27758 ft 398 kts 268°
2026-05-06 11:08 9.95306 120.27576 27174 ft 394 kts 268°
2026-05-06 11:09 9.95265 120.25699 26877 ft 392 kts 268°
2026-05-06 11:09 9.95186 120.22065 26303 ft 388 kts 268°
2026-05-06 11:09 9.95145 120.20220 26000 ft 386 kts 268°
2026-05-06 11:09 9.95060 120.16625 25415 ft 383 kts 268°
2026-05-06 11:10 9.95015 120.14808 25110 ft 382 kts 268°
2026-05-06 11:10 9.94949 120.12121 24643 ft 381 kts 268°
2026-05-06 11:10 9.94888 120.09441 24192 ft 380 kts 268°
2026-05-06 11:10 9.94828 120.06764 23722 ft 379 kts 268°
2026-05-06 11:11 9.94766 120.04093 23210 ft 379 kts 268°
2026-05-06 11:11 9.94703 120.01421 22707 ft 378 kts 268°
2026-05-06 11:11 9.94661 119.99661 22401 ft 376 kts 268°
2026-05-06 11:12 9.94613 119.98058 22165 ft 373 kts 268°
2026-05-06 11:12 9.94539 119.95427 21657 ft 373 kts 268°
2026-05-06 11:12 9.94477 119.92799 21200 ft 371 kts 268°
2026-05-06 11:12 9.94422 119.90180 20592 ft 375 kts 268°
2026-05-06 11:13 9.94367 119.87510 19823 ft 383 kts 268°
2026-05-06 11:13 9.94307 119.84773 19052 ft 392 kts 268°
2026-05-06 11:13 9.94240 119.81985 18268 ft 400 kts 268°
2026-05-06 11:13 9.94169 119.79095 17379 ft 408 kts 268°
2026-05-06 11:14 9.94098 119.76238 16488 ft 415 kts 268°
2026-05-06 11:14 9.94024 119.73284 15579 ft 422 kts 269°
2026-05-06 11:14 9.93951 119.70245 14666 ft 429 kts 269°
2026-05-06 11:14 9.93880 119.67212 13916 ft 430 kts 269°
2026-05-06 11:15 9.93808 119.64198 13291 ft 426 kts 269°
2026-05-06 11:15 9.93736 119.61209 12668 ft 421 kts 269°
2026-05-06 11:15 9.93664 119.58247 12011 ft 417 kts 269°
2026-05-06 11:15 9.93591 119.55325 11362 ft 413 kts 269°
2026-05-06 11:16 9.93515 119.52421 10715 ft 409 kts 269°
2026-05-06 11:16 9.93440 119.49554 10140 ft 404 kts 268°
2026-05-06 11:16 9.93365 119.46759 9914 ft 388 kts 268°
2026-05-06 11:16 9.93295 119.44080 9754 ft 371 kts 268°
2026-05-06 11:17 9.93018 119.41544 9635 ft 354 kts 257°
2026-05-06 11:17 9.92251 119.39234 9500 ft 339 kts 244°
2026-05-06 11:17 9.91112 119.37203 9381 ft 324 kts 238°
2026-05-06 11:17 9.89957 119.35290 9244 ft 312 kts 238°
2026-05-06 11:18 9.88852 119.33447 9127 ft 300 kts 238°
2026-05-06 11:18 9.87771 119.31644 9009 ft 299 kts 238°
2026-05-06 11:18 9.86693 119.29843 8871 ft 298 kts 238°
2026-05-06 11:18 9.85618 119.28050 8762 ft 298 kts 238°
2026-05-06 11:19 9.84539 119.26252 8590 ft 299 kts 238°
2026-05-06 11:19 9.83442 119.24423 7944 ft 309 kts 238°
2026-05-06 11:19 9.82304 119.22527 7185 ft 319 kts 238°
2026-05-06 11:19 9.81139 119.20586 6432 ft 328 kts 238°
2026-05-06 11:20 9.79931 119.18579 5606 ft 337 kts 238°
2026-05-06 11:20 9.78695 119.16524 4741 ft 346 kts 238°
2026-05-06 11:20 9.77449 119.14444 4206 ft 342 kts 238°
2026-05-06 11:20 9.76243 119.12425 4053 ft 326 kts 238°
2026-05-06 11:21 9.75103 119.10518 4007 ft 307 kts 238°
2026-05-06 11:21 9.74036 119.08730 4017 ft 286 kts 240°
2026-05-06 11:21 9.73305 119.06994 4021 ft 280 kts 254°
2026-05-06 11:21 9.73177 119.06506 4022 ft 279 kts 257°
2026-05-06 11:22 9.73017 119.05629 4053 ft 263 kts 263°
2026-05-06 11:22 9.72972 119.03839 3930 ft 242 kts 274°
2026-05-06 11:22 9.73057 119.02112 3766 ft 246 kts 273°
2026-05-06 11:22 9.73136 119.00383 3399 ft 244 kts 273°
2026-05-06 11:23 9.73212 118.98668 3116 ft 239 kts 273°
2026-05-06 11:23 9.73285 118.97025 2998 ft 228 kts 272°
2026-05-06 11:23 9.73355 118.95457 2874 ft 218 kts 273°
2026-05-06 11:23 9.73424 118.93940 2654 ft 214 kts 272°
2026-05-06 11:24 9.73490 118.92442 2428 ft 210 kts 272°
2026-05-06 11:24 9.73552 118.91010 2334 ft 198 kts 272°
2026-05-06 11:24 9.73610 118.89654 2203 ft 188 kts 272°
2026-05-06 11:24 9.73667 118.88361 2038 ft 180 kts 272°
2026-05-06 11:25 9.73721 118.87121 1740 ft 171 kts 272°
2026-05-06 11:25 9.73773 118.85908 1212 ft 175 kts 272°
2026-05-06 11:25 9.73828 118.84655 1041 ft 179 kts 272°
2026-05-06 11:25 9.73883 118.83400 1036 ft 180 kts 272°
2026-05-06 11:26 9.73939 118.82137 1040 ft 180 kts 273°
2026-05-06 11:26 9.73992 118.80921 1036 ft 170 kts 272°
2026-05-06 11:26 9.74049 118.79759 916 ft 164 kts 275°
2026-05-06 11:26 9.74086 118.78605 489 ft 164 kts 272°
2026-05-06 11:27 9.74151 118.77441 208 ft 164 kts 274°
2026-05-06 11:27 9.74195 118.76329 54 ft 147 kts 274°
2026-05-06 11:27 9.74231 118.75471 68 ft 85 kts 277°
2026-05-06 11:27 9.74256 118.75063 72 ft 33 kts 272°
2026-05-06 11:28 9.74256 118.74957 74 ft 11 kts 272°
2026-05-06 11:28 9.74260 118.74894 78 ft 13 kts 274°